User: anonymous   Login
Location: Churchill
(58.7670°N, 94.1670°W)
Time: 02:31:39
(UTC-06:00)
Language:

Cosmos 1315 Rocket - Orbit

View from above orbital plane
View from above orbital plane
View from above satellite
View from above satellite

Ground track
Ground track

The orbit data is extracted from the following two-line orbital elements,

1 12904U 81103B   14332.54993673  .00004166  00000-0  30383-3 0  6396
2 12904 081.1792 258.4383 0028196 246.9831 112.8416 15.03207188352736
Epoch (UTC): 28 November 2014 13:11:54
Eccentricity: 0.0028196
inclination: 81.1792°
perigee height: 537 km
apogee height: 576 km
right ascension of ascending node: 258.4383°
argument of perigee: 246.9831°
revolutions per day: 15.03207188
mean anomaly at epoch: 112.8416°
orbit number at epoch: 35273

The dashed part of the orbit path shows where the satellite is in the earth's shadow,  

DLR